Regional Weather Roundup
Issued by NWS Charleston, SC

Current Version | Previous Version | Graphics & Text | Print | Product List | Glossary On
Versions: 1 2 3 4 5 6 7 8 9 10 11 12 13 14 15 16 17 18 19 20 21 22 23 24 25 26 27 28 29 30 31 32 33 34 35 36 37 38 39 40 41 42 43 44 45 46 47 48 49 50
000
ASUS42 KCHS 020227
RWRCHS

REGIONAL WEATHER ROUNDUP
NATIONAL WEATHER SERVICE CHARLESTON SC
1000 PM EDT WED JUL 01 2015

NOTE: "FAIR" INDICATES FEW OR NO CLOUDS BELOW 12,000 FEET WITH NO
SIGNIFICANT WEATHER AND/OR OBSTRUCTIONS TO VISIBILITY.

NOT ALL STATIONS ARE QUALITY CONTROLLED BY THE NATIONAL
WEATHER SERVICE. USE DATA WITH CAUTION...ESPECIALLY
DEWPOINT OBSERVATIONS.

SCZ027-030-031-034>040-042>050-020300-
...SOUTHEAST SOUTH CAROLINA...

CITY           SKY/WX    TMP DP  RH WIND       PRES   REMARKS
N CHARLESTON   CLOUDY    80  72  76 SW7       30.01R
WATERFRONT PAR   N/A     82  75  79 VRB2      29.98S
MOUNT PLEASANT FAIR      81  73  78 S5        30.02R
JOHNS ISLAND   FAIR      81  77  89 CALM      30.02R
PINOPOLIS      NOT AVBL
MONCKS CORNER  FAIR      77  72  83 CALM      30.01R
SUMMERVILLE    FAIR      77  73  88 CALM      30.02R
BEAUFORT MCAS  MOCLDY    82  73  74 SW7       30.02R THUNDER
BEAUFORT ARPT  FAIR      77  72  83 S3        30.02R
HILTON HEAD IS PTCLDY    82  72  69 CALM      30.04R
WALTERBORO     PTCLDY    79  72  78 CALM      30.03R
ALLENDALE      FAIR      77  73  88 CALM      30.02R

...SOUTHERN MIDLANDS AND PEE DEE...

CITY           SKY/WX    TMP DP  RH WIND       PRES   REMARKS
GEORGETOWN     NOT AVBL
KINGSTREE      NOT AVBL
ORANGEBURG     CLEAR     77  71  82 SW6       30.01R
BARNWELL       FAIR      79  73  83 CALM      30.03R
AIKEN          NOT AVBL
MANNING        FAIR      75  72  88 CALM      30.01R
COLUMBIA       MOCLDY    80  68  66 SW7       30.00R
SUMTER         PTCLDY    78  71  79 SW6       29.98R
FLORENCE       CLEAR     79  72  79 SW6       29.98R
MYRTLE BEACH   CLEAR     82  70  65 S6        30.01R
N MYRTLE BEACH PTCLDY    80  71  74 SW6       29.98S

$$

GAZ063-065-086>088-099>101-113>116-118-119-134>141-150-020300-
...SOUTHEAST GEORGIA...

CITY           SKY/WX    TMP DP  RH WIND       PRES   REMARKS
SAVANNAH ARPT  MOCLDY    83  70  64 W6        30.03R
HUNTER AAF     PTCLDY    83  72  69 VRB6      30.01R
FORT STEWART   PTCLDY    82  70  66 SW5       30.01R
STATESBORO     CLOUDY    79  79 100 W5        30.05R
SYLVANIA       PTCLDY    80  77  92 CALM      30.05R
CLAXTON        CLOUDY    82  72  69 NW5       30.05R

...CSRA...CENTRAL AND FAR SOUTHEAST GEORGIA...

CITY           SKY/WX    TMP DP  RH WIND       PRES   REMARKS
THOMSON        CLOUDY    76  68  74 NW3       30.11R
AUGUSTA-BUSH   PTCLDY    75  71  87 W3        30.02R
AUGUSTA-DANIEL PTCLDY    82  69  64 W7        30.04R
SWAINSBORO     FAIR      79  70  73 W5        30.07R
VIDALIA        MOCLDY    73  68  83 NW5       30.08R
EASTMAN        MOCLDY    73  73 100 CALM      30.10R
HAZLEHURST     MOCLDY    83  70  65 N8        30.06R
ALMA           FAIR      81  69  67 SW3       30.05R
WAYCROSS       CLEAR     81  71  71 SW6       30.08R
JESUP          FAIR      81  72  74 SW3       30.06R
BAXLEY         FAIR      82  70  65 CALM      30.06R
BRUNSWICK      PTCLDY    81  72  74 SW7       30.07R
SAINT SIMONS   PTCLDY    83  72  69 SW8       30.04S

$$

SCZ027-028-034-036>038-045-046-048>050-GAZ119-141-020300-
...LAKE AND SUPPLEMENTAL COASTAL OBSERVATIONS...

STATION/POSITION TIME  TEMP    WIND        PRES    WAVE   SWELL
                       AIR SEA DIR/SP/G            HT/PER HT/PER/DIR
                 (UTC) (F)     (DEG/KT/KT) (MB)    (FT/S) (FT/S/D)
UPR LAKE MARION  NOT AVBL
WINYAH BAY       0100   81     230/  4     1015.0R
LAKE MURRAY      0100   83     250/  9/ 12 1014.6S
ACE BASIN NERRS  0100   80        CALM     1016.0S
FORT PULASKI     0200   84 83  220/  3/  6 1017.5R
SAPELO ISLAND    0200   82     200/  5     1017.0S

$$

ANZ835-935-AMZ111-154-330-350-352-354-370-450-454-472-020300-
...C-MAN AND BUOY OBSERVATIONS...

STATION/POSITION TIME  TEMP    WIND        PRES    WAVE   SWELL
                       AIR SEA DIR/SP/G            HT/PER HT/PER/DIR
                 (UTC) (F)     (DEG/KT/KT) (MB)    (FT/S) (FT/S/D)
BUOY 41004       0150   82 82  220/ 14/ 16 1016.0R   4/ 6   2/ 8
BUOY 41008       0150   80 79  200/ 10/ 10 1017.3R   2/ 9   2/130/ 9
FOLLY BEACH CMAN 0200   82     210/ 10/ 12 1016.6R
CAPERS NEARSHORE 0108   82     230/ 16/ 17 1016.1R
FRIPP NEARSHORE  0100   82     210/  6/  6 1015.8R


STATION/POSITION TIME  TEMP    WIND        PRES    WAVE   SWELL
                       AIR SEA DIR/SP/G            HT/PER HT/PER/DIR
                 (UTC) (F)     (DEG/KT/KT) (MB)    (FT/S) (FT/S/D)
5E ST. MARYS GA  0121      78                N/A     2/ 8
FRYING PAN BUOY  0150   81 80  230/ 16/ 19 1016.0R   5/ 6   2/150/ 9
BUOY 41025       0150   80 83  230/ 19/ 21 1014.2R   5/ 8   3/170/ 8
CAPE LOOKOUT NC  0200   79     240/ 12/ 18 1014.7R
BUOY 41002       0150   82 80  240/ 17/ 19 1018.3R   6/ 7
BUOY 41010       0120   83 84  200/ 12/ 14 1020.0R
ST AUGUSTINE FL  0200   79 74  170/  7/  8 1020.1R


$$


USA.gov is the U.S. government's official web portal to all federal, state and local government web resources and services.